Location: Newark
(51.0500°N, 12.4500°E)
Time: 14:07:56
(UTC+00:00)

Tiros 1 - Pass Details

Date: 27 February 2020
Orbit: 630 x 664 km, 48.4° (Epoch: 08 April)

Event Time Altitude Azimuth Distance (km) Brightness Sun altitude
Rises 22:30:12 0° 201° (SSW) 2,939 - -45.9°
Reaches altitude 10° 22:33:14 10° 181° (S) 2,026 - -46.0°
Maximum altitude 22:36:10 17° 142° (SE) 1,625 - -46.1°
Drops below altitude 10° 22:39:06 10° 102° (ESE) 2,020 - -46.3°
Sets 22:42:08 0° 82° (E) 2,927 - -46.4°
